Location: Veytaux
(46.4185°N, 6.9320°E)
Time: 07:27:07
(UTC+00:00)

Cosmos 614 Rocket - Pass Details

Date: 27 May 2022
Orbit: 732 x 764 km, 74.1° (Epoch: 01 July)

Event Time Altitude Azimuth Distance (km) Brightness Sun altitude
Rises 01:12:05 0° 340° (NNW) 3,216 7.9 -18.4°
Reaches altitude 10° 01:14:29 10° 344° (NNW) 2,292 7.1 -18.3°
Maximum altitude 01:19:38 60° 65° (ENE) 867 4.5 -17.9°
Drops below altitude 10° 01:24:46 10° 146° (SE) 2,291 6.2 -17.5°
Enters shadow 01:25:39 - 147° (SSE) 2,624 6.5 -17.4°
